This demonstration page uses our WeatherBlox Daily Observations layout. Learn more.

Left ArrowRight Arrow

39.51506, -84.39828

Hourly Observations for June 9, 2020

Temp ( °F °C ) Dew Point ( °F °C ) Humidity (%) Winds ( mph kmh ) Pressure ( in mb ) Visibility ( mi km ) Precip ( " mm )
12:15 am 00:15 Clear 64 17.9 61 16.2 90 90 Calm 29.95 1014 10 16.0934 0 0
12:35 am 00:35 Clear 65 18.3 62 16.8 91 91 Calm 29.95 1014 10 16.0934 0 0
12:55 am 00:55 Clear 64 18 61 16.3 90 90 Calm 29.95 1014 10 16.0934 0 0
1:15 am 01:15 Clear 64 17.6 61 16.1 91 91 Calm 29.94 1014 10 16.0934 0 0
1:35 am 01:35 Clear 63 17.4 60 15.5 89 89 Calm 29.93 1014 10 16.0934 0 0
1:55 am 01:55 Clear 63 17.1 60 15.8 92 92 Calm 29.93 1014 10 16.0934 0 0
2:15 am 02:15 Clear 62 16.5 59 15.1 92 92 Calm 29.92 1013 10 16.0934 0 0
2:35 am 02:35 Clear 61 16.3 59 15.2 93 93 Calm 29.91 1013 10 16.0934 0 0
2:55 am 02:55 Clear with Mist and Fog 61 16.2 59 15.2 94 94 Calm 29.9 1013 7 11.26538 0 0
3:15 am 03:15 Clear with Mist and Fog 61 16.3 59 14.9 91 91 Calm 29.9 1013 7 11.26538 0 0
3:35 am 03:35 Clear 61 16.1 59 15 93 93 Calm 29.9 1013 10 16.0934 0 0
3:55 am 03:55 Clear 62 16.8 59 15.1 90 90 Calm 29.89 1012 10 16.0934 0 0
4:15 am 04:15 Clear 63 17 59 15.2 89 89 Calm 29.89 1012 10 16.0934 0 0
4:35 am 04:35 Clear 62 16.9 60 15.3 90 90 Calm 29.88 1012 10 16.0934 0 0
4:55 am 04:55 Clear 62 16.9 59 14.9 88 88 Calm 29.88 1012 10 16.0934 0 0
5:15 am 05:15 Clear 62 16.4 59 15.1 92 92 Calm 29.88 1012 10 16.0934 0 0
5:35 am 05:35 Clear 61 16.3 59 14.9 91 91 Calm 29.88 1012 10 16.0934 0 0
5:55 am 05:55 Clear 61 16 59 14.9 93 93 Calm 29.88 1012 10 16.0934 0 0
6:15 am 06:15 Sunny 61 16.2 59 15 93 93 Calm 29.88 1012 10 16.0934 0 0
6:35 am 06:35 Sunny 61 16.2 60 15.3 94 94 Calm 29.88 1012 10 16.0934 0 0
6:55 am 06:55 Sunny 62 16.4 59 15.2 93 93 Calm 29.88 1012 10 16.0934 0 0
7:15 am 07:15 Mostly Cloudy 63 17.2 61 16 93 93 Calm 29.89 1012 10 16.0934 0 0
7:35 am 07:35 Sunny 65 18.3 61 16.3 88 88 Calm 29.89 1012 10 16.0934 0 0
7:55 am 07:55 Sunny 67 19.7 62 16.5 82 82 Calm 29.89 1012 10 16.0934 0 0
8:15 am 08:15 Sunny 70 21.2 62 16.5 75 75 Calm 29.88 1012 10 16.0934 0 0
8:35 am 08:35 Sunny 74 23.2 62 16.5 66 66 SSE 3 6 29.88 1012 10 16.0934 0 0
8:55 am 08:55 Sunny 76 24.3 62 16.5 62 62 Calm 29.87 1012 10 16.0934 0 0
9:15 am 09:15 Sunny 77 25.1 63 17.3 62 62 SSE 3 6 29.87 1012 10 16.0934 0 0
9:35 am 09:35 Sunny 79 25.9 65 18.1 62 62 SSE 5 7 29.85 1011 10 16.0934 0 0
9:55 am 09:55 Sunny 80 26.8 66 19 62 62 Calm 29.85 1011 10 16.0934 0 0
10:15 am 10:15 Hazy 83 28.4 70 20.9 64 64 S 7 11 29.84 1010 7 11.26538 0 0
10:35 am 10:35 Sunny 84 28.9 70 21 62 62 S 9 15 29.82 1010 10 16.0934 0 0
10:55 am 10:55 Sunny 84 29 70 21 62 62 S 10 17 29.81 1010 10 16.0934 0 0
11:15 am 11:15 Sunny N/A N/A N/A S 14 22 N/A 10 16.0934 0 0
11:35 am 11:35 Sunny N/A N/A N/A SW 16 26 N/A 10 16.0934 0 0
11:55 am 11:55 Partly Cloudy N/A N/A N/A SSW 17 28 N/A 10 16.0934 0 0
12:15 pm 12:15 Sunny N/A N/A N/A SW 17 28 N/A 10 16.0934 0 0
12:35 pm 12:35 Sunny 84 29 72 22 66 66 SW 13 20 29.8 1009 10 16.0934 0 0
12:55 pm 12:55 Partly Cloudy N/A N/A N/A S 15 24 N/A 10 16.0934 0 0
1:15 pm 13:15 Mostly Cloudy N/A N/A N/A S 18 30 N/A 10 16.0934 0 0
1:35 pm 13:35 Partly Cloudy N/A N/A N/A S 18 30 N/A 10 16.0934 0 0
1:55 pm 13:55 Partly Cloudy N/A N/A N/A SSW 18 30 N/A 10 16.0934 0 0
2:15 pm 14:15 Mostly Cloudy N/A N/A N/A SW 20 31 N/A 10 16.0934 0 0
2:35 pm 14:35 Partly Cloudy N/A N/A N/A SSW 15 24 N/A 10 16.0934 0 0
2:55 pm 14:55 Cloudy N/A N/A N/A SSW 22 35 N/A 10 16.0934 0 0
3:15 pm 15:15 Mostly Cloudy N/A N/A N/A SSW 17 28 N/A 10 16.0934 0 0
3:35 pm 15:35 Cloudy N/A N/A N/A SSW 16 26 N/A 10 16.0934 0 0
3:55 pm 15:55 Mostly Cloudy N/A N/A N/A S 16 26 N/A 10 16.0934 0 0
4:15 pm 16:15 Mostly Cloudy 81 27 72 22 74 74 SSW 20 31 29.78 1008 3 4.82802 0.05 1.27
4:35 pm 16:35 Mostly Cloudy with Light Rain N/A N/A N/A S 6 9 N/A 10 16.0934 0.05 1.27
4:55 pm 16:55 Sunny N/A N/A N/A S 8 13 N/A 10 16.0934 0.06 1.524
5:15 pm 17:15 Sunny N/A N/A N/A S 9 15 N/A 10 16.0934 0 0
5:35 pm 17:35 Sunny N/A N/A N/A SSW 15 24 N/A 10 16.0934 0 0
5:55 pm 17:55 Partly Cloudy N/A N/A N/A S 13 20 N/A 10 16.0934 0 0
6:15 pm 18:15 Sunny N/A N/A N/A S 12 19 N/A 10 16.0934 0 0
6:35 pm 18:35 Partly Cloudy N/A N/A N/A S 15 24 N/A 10 16.0934 0 0
6:55 pm 18:55 Cloudy N/A N/A N/A S 16 26 N/A 10 16.0934 0 0
7:15 pm 19:15 Cloudy N/A N/A N/A S 14 22 N/A 10 16.0934 0 0
7:35 pm 19:35 Partly Cloudy N/A N/A N/A S 14 22 N/A 10 16.0934 0 0
7:55 pm 19:55 Partly Cloudy N/A N/A N/A SSW 13 20 N/A 10 16.0934 0 0
8:15 pm 20:15 Partly Cloudy N/A N/A N/A SSW 13 20 N/A 10 16.0934 0 0
8:35 pm 20:35 Partly Cloudy N/A N/A N/A SSW 8 13 N/A 10 16.0934 0 0
8:55 pm 20:55 Sunny N/A N/A N/A S 10 17 N/A 10 16.0934 0 0
9:15 pm 21:15 Clear 81 27 73 23 79 79 S 10 17 29.75 1007 10 16.0934 0 0
9:35 pm 21:35 Partly Cloudy N/A N/A N/A S 12 19 N/A 10 16.0934 0 0
9:55 pm 21:55 Partly Cloudy N/A N/A N/A S 9 15 N/A 10 16.0934 0 0
10:15 pm 22:15 Cloudy N/A N/A N/A S 12 19 N/A 10 16.0934 0 0
10:35 pm 22:35 Partly Cloudy N/A N/A N/A SSW 13 20 N/A 10 16.0934 0 0
10:55 pm 22:55 Cloudy 81 27.2 72 22.4 75 75 SSW 12 19 29.76 1008 10 16.0934 0 0
11:15 pm 23:15 Cloudy 81 27 72 22 74 74 SSW 12 19 29.76 1008 10 16.0934 0 0
11:35 pm 23:35 Mostly Cloudy 81 27 72 22 74 74 SSW 10 17 29.76 1008 10 16.0934 0 0
11:55 pm 23:55 Partly Cloudy 81 27 72 22 74 74 SSW 12 19 29.75 1007 10 16.0934 0 0

Powered by AerisWeather